Location: Shades State Park
(39.9310°N, 87.0690°W)
Time: 21:31:50
(UTC-04:00)

Daily predictions for brighter satellites

Satellite Brightness Start Highest point End
(mag) Time Altitude Azimuth Time Altitude Azimuth Time Altitude Azimuth
RESURS DK-1 3.1 20:31:54 10° NNW 20:35:58 57° WSW 20:40:01 10° S
Tiangong 1 3.3 20:34:03 10° W 20:36:15 19° SSW 20:38:25 10° SSE
Cosmos 2278 Rocket 2.5 20:31:56 10° SSW 20:37:36 78° WNW 20:43:19 10° NNE
NOAA 12 4.4 20:32:36 10° S 20:37:54 74° WSW 20:43:13 10° NNW
Cosmos 1437 Rocket 4.4 20:35:50 10° SSW 20:39:39 41° WNW 20:43:32 10° N
ATLAS 5 CENTAUR R/B 2.4 20:35:51 10° S 20:40:01 34° ESE 20:44:29 10° NE
Cosmos 1125 Rocket 3.6 20:36:51 10° S 20:41:52 52° ESE 20:46:56 10° NNE
SeaSat 1 2.6 20:38:20 10° SE 20:43:08 55° ENE 20:47:58 10° NNW
GPS 2-05 Rocket1 3.8 20:41:53 10° WSW 20:45:08 35° S 20:48:14 11° ESE
Cosmos 1048 Rocket 4.4 20:40:25 10° N 20:45:16 42° ENE 20:50:06 10° SE
Cosmos 1470 4.1 20:42:25 10° SE 20:45:22 20° E 20:48:18 10° NE
Cosmos 1766 Rocket 4.5 20:42:49 10° NNE 20:46:46 29° ENE 20:50:40 10° SE
Cosmos-2242 4.0 20:44:35 10° SE 20:48:02 24° E 20:51:28 10° NE
GP-B 4.0 20:47:56 10° SE 20:51:42 28° E 20:55:29 10° NNE
HJ-1C 3.4 20:50:43 10° SSE 20:54:06 85° E 20:57:33 10° N
Cosmos 2297 3.7 20:50:14 10° S 20:55:53 68° ESE 21:01:36 10° NNE
SJ-6B 3.4 20:53:23 10° S 20:57:03 57° W 21:00:45 10° NNW
BREEZE-M DEB (TANK) 3.0 20:54:41 10° WSW 20:57:21 81° NNW 21:04:02 10° ENE
USA 186 2.5 20:58:06 18° E 20:58:21 18° ENE 20:59:59 10° NNE
H-2A R/B 2.7 20:55:14 10° SSE 20:59:06 67° ENE 21:03:02 10° N
Cosmos 1340 Rocket 4.0 20:56:55 10° NNE 21:00:12 24° ENE 21:02:27 15° ESE
Resurs 01 Rocket 1.6 20:56:54 10° SSE 21:01:16 70° ENE 21:05:41 10° N
CZ-4B DEB 4.4 21:01:10 16° E 21:01:50 17° ENE 21:03:55 10° NNE
Cosmos 2082 Rocket 2.2 21:03:00 10° NNW 21:08:42 68° ENE 21:14:19 10° SSE
FengYun 1-2 T 4.4 21:03:20 10° S 21:08:54 77° WSW 21:14:33 10° NNW
ISS -4.0 21:06:38 10° SW 21:09:52 75° SE 21:12:44 13° NE
Cosmos 1605 Rocket 4.3 21:04:10 10° SSW 21:10:26 75° W 21:16:49 10° N
Cosmos 2100 Rocket 4.2 21:08:23 10° SSE 21:14:26 50° E 21:20:32 10° NNE
Meteor 1-29 3.8 21:11:23 10° NE 21:14:27 28° E 21:16:41 15° SSE
Cosmos 1743 Rocket 4.5 21:14:01 10° NNE 21:17:56 30° ENE 21:19:40 23° ESE
SAR-Lupe-4 3.7 21:16:30 17° SE 21:19:02 50° ENE 21:22:31 10° N
CZ-3B DEB 4.2 21:11:20 10° WSW 21:21:05 38° NW 21:25:56 10° NNE
COSMOS 2487 2.5 21:20:10 10° NNW 21:23:46 83° WSW 21:26:44 14° SSE
Cosmos 1271 Rocket 2.7 21:20:31 10° S 21:24:28 62° E 21:28:28 10° NNE
Cosmos 1758 4.2 21:21:57 10° SSW 21:25:49 52° W 21:29:44 10° N
Cosmos 2251 Rocket 4.4 21:22:04 10° N 21:26:48 31° ENE 21:28:42 25° E
H-2A R/B 4.3 21:22:45 10° SW 21:28:26 46° SSE 21:48:03 20° ESE
H-2A R/B 4.3 21:22:46 10° SW 21:28:26 46° SSE 21:48:02 20° ESE
H-2A R/B 4.3 21:22:45 10° SW 21:28:26 46° SSE 21:48:02 20° ESE
H-2A R/B 4.3 21:22:46 10° SW 21:28:26 46° SSE 21:48:04 20° ESE
H-2A R/B 4.3 21:22:46 10° SW 21:28:26 46° SSE 21:48:03 20° ESE
H-2A R/B 4.3 21:22:46 10° SW 21:28:26 46° SSE 21:48:01 20° ESE
H-2A R/B 4.3 21:22:46 10° SW 21:28:26 46° SSE 21:48:00 20° ESE
H-2A R/B 4.3 21:22:45 10° SW 21:28:26 46° SSE 21:47:58 20° ESE
H-2A R/B 4.3 21:22:46 10° SW 21:28:26 46° SSE 21:48:05 20° ESE
H-2A R/B 4.3 21:22:45 10° SW 21:28:26 46° SSE 21:48:01 20° ESE
H-2A R/B 4.3 21:22:45 10° SW 21:28:26 46° SSE 21:48:04 20° ESE
Cosmos 1818 4.3 21:23:55 10° NW 21:29:12 53° WSW 21:34:26 10° SSE
Cosmos 1269 Rocket 4.2 21:24:09 10° NNW 21:29:27 76° WSW 21:34:42 10° SSE
Cosmos 372 Rocket 4.1 21:24:49 10° SSW 21:29:54 75° WNW 21:35:06 10° NNE
Cosmos 1953 3.4 21:28:14 10° SSW 21:32:11 49° W 21:36:07 10° N
Cosmos 1674 2.6 21:28:56 10° N 21:32:44 85° W 21:36:15 12° S
Cosmos 158 Rocket 4.0 21:28:58 10° NNW 21:34:08 83° WSW 21:39:05 12° SSE
Lacrosse 5 4.1 21:31:12 10° W 21:35:10 22° NNW 21:39:08 10° NNE
Resurs 1-3 4.3 21:32:25 10° S 21:36:43 55° W 21:41:02 10° NNW
USA 215 3.6 21:30:43 10° ENE 21:36:47 40° SE 21:42:49 10° SSW
SAR-Lupe-1 3.9 21:36:01 29° SSE 21:37:44 77° ENE 21:41:20 10° N
Cosmos 1408 Rocket 3.7 21:33:15 10° N 21:37:44 77° W 21:42:11 10° S
Cosmos 1802 Rocket 3.9 21:32:11 10° S 21:38:11 60° E 21:44:15 10° NNE
Cosmos 2151 4.1 21:38:57 10° NNE 21:42:00 26° ENE 21:42:00 26° ENE
Cosmos 1939 Rocket 3.1 21:42:56 42° ESE 21:43:47 49° ENE 21:47:49 10° N
Helios 1B rocket 2.4 21:40:17 10° NNE 21:44:26 87° WNW 21:48:32 10° SSW
TIMED 4.3 21:44:16 10° SSW 21:48:37 78° ESE 21:53:00 10° NNE
SJ-11-01 4.2 21:48:15 35° SE 21:50:09 66° ENE 21:54:51 10° N
Cosmos 1842 Rocket 3.5 21:50:28 41° SSE 21:51:43 57° E 21:56:02 10° NNE
Lacrosse 5 rocket 0.9 21:49:51 10° NW 21:53:46 90° WNW 21:54:09 71° SE
Cosmos 2061 Rocket 4.0 21:49:04 10° S 21:55:28 90° E 22:01:57 10° N
Cosmos 494 Rocket 4.0 21:52:58 10° N 21:58:02 58° ENE 21:59:01 49° ESE
Cosmos 2369 Rocket 3.9 22:01:46 18° NE 22:01:46 18° NE 22:03:18 10° NE
Cosmos 1459 Rocket 4.1 21:53:54 10° S 22:00:09 77° W 22:06:21 10° N
Timation 2 Rocket 4.4 21:55:49 10° NNW 22:01:56 58° WSW 22:06:20 18° S
Helios 1A 4.0 22:02:56 18° SSW 22:05:46 45° W 22:09:48 10° NNW
Gblst 52 Del rocket 4.1 22:00:07 10° SW 22:06:04 64° SE 22:07:37 45° E
Cosmos 2173 Rocket 4.3 22:02:21 10° SSW 22:08:28 67° W 22:14:44 10° N
Cosmos 1184 Rocket 3.6 22:05:48 10° NNW 22:08:25 50° NNW 22:08:25 50° NNW
Envisat 3.1 22:08:43 30° S 22:11:13 72° WSW 22:16:19 10° NNW
Cosmos 1833 Rocket 3.9 22:07:01 10° NW 22:12:12 39° WSW 22:16:33 14° SSW
Cosmos 1864 Rocket 4.4 22:11:34 33° SSE 22:14:28 67° E 22:20:43 10° NNE
Meteor 2-17 Rocket 4.5 22:10:27 10° S 22:16:36 81° W 22:22:46 10° N
ERS-1 Rocket 2.8 22:23:15 79° ESE 22:23:25 80° ENE 22:28:28 10° N
ATLAS 5 CENTAUR R/B 3.6 22:20:28 10° WSW 22:24:41 30° NW 22:29:14 10° NNE
H-2A R/B 3.7 22:31:00 23° NE 22:31:00 23° NE 22:33:41 10° N
Cosmos 1356 Rocket 4.1 22:26:58 10° NNW 22:30:27 51° WNW 22:30:27 51° WNW
CZ-3 Stage 3 3.6 22:11:46 10° W 22:36:23 46° SSW 22:38:06 41° S
ISS -0.7 22:44:13 10° WNW 22:45:27 16° NW 22:45:27 16° NW
MetOp-A 4.3 22:49:16 66° NNW 22:49:16 66° NNW 22:53:51 10° NNW
Cosmos 1725 Rocket 4.3 22:47:24 32° SSW 22:50:22 63° W 22:56:32 10° N
ARGOS 3.8 22:55:16 48° N 22:55:16 48° N 22:59:08 10° N
USA 215 3.7 23:13:31 10° NE 23:19:54 59° NW 23:26:16 10° WSW
SPOT 5 4.3 23:22:08 40° NW 23:22:08 40° NW 23:25:45 10° NNW
Terra 4.3 23:31:04 16° N 23:31:04 16° N 23:32:04 10° N
Cosmos 2369 Rocket 3.8 23:43:23 31° NW 23:43:23 31° NW 23:47:21 10° N
USA 267 4.0 23:53:31 46° NNW 23:53:31 46° NNW 23:58:04 10° NW
